Tracking 18796 objects as of 19-September-2017
HD Live streaming from Space Station
objects crossing your sky now

IRIDIUM 123

Track IRIDIUM 123 now!
10-day predictions
IRIDIUM 123 is classified as:


NORAD ID: 42804
Int'l Code: 2017-039B
Perigee: 783.0 km
Apogee: 786.6 km
Inclination: 86.4 °
Period: 100.4 minutes
Semi major axis: 7155 km
RCS: Unknown
Launch date: June 25, 2017
Source: United States (US)
Launch site: AIR FORCE WESTERN TEST RANGE (AFWTR)
aabbcc
Your satellite tracking list
Your tracking list is empty





NASA's NSSDC Master Catalog

Two Line Element Set (TLE):
1 42804U 17039B   17262.46511859  .00000063  00000-0  15606-4 0  9996
2 42804  86.3944 247.7614 0002493  85.6167 274.5314 14.34216294 12337
Source of the keplerian elements: AFSPC